Location: Bothwell
(41.7170°N, 112.2589°W)
Time: 00:24:47
(UTC+00:00)

Tiros 1 despin weight - Visible Passes

Search period start: 12 May 2026 00:00
Search period end: 22 May 2026 00:00
Orbit: 555 x 591 km, 48.2° (Epoch: 11 May)

Date Brightness Start Highest point End Pass type
(mag) Time Alt. Az. Time Alt. Az. Time Alt. Az.
16 May ? 10:24:54 10° SSE 10:26:47 13° SE 10:28:38 10° ESE visible
17 May ? 10:26:22 15° S 10:28:21 20° SE 10:31:27 10° E visible
18 May ? 10:28:02 20° S 10:29:59 30° SE 10:33:42 10° E visible
19 May ? 10:29:37 25° SSW 10:31:40 44° SE 10:35:43 10° ENE visible
20 May ? 08:55:02 11° ESE 08:55:02 11° ESE 08:55:22 10° ESE visible
20 May ? 10:31:08 26° SW 10:33:24 66° SSE 10:37:36 10° ENE visible
21 May ? 08:56:30 17° ESE 08:56:30 17° ESE 08:58:09 10° E visible
21 May ? 10:32:36 24° WSW 10:35:10 87° NNW 10:39:26 10° ENE visible
